Location: Colebrook
(42.0017°N, 73.0973°W)
Time: 16:55:47
(UTC-05:00)

Vanguard 2 - Pass Details

Date: 26 October 2021
Orbit: 554 x 2936 km, 32.9° (Epoch: 04 December)

Event Time Altitude Azimuth Distance (km) Brightness Sun altitude
Exits shadow 04:25:18 45° 178° (S) 1,721 9.1 -32.6°
Drops below altitude 10° 04:31:05 10° 118° (ESE) 2,727 10.9 -31.5°
Sets 04:33:18 0° 111° (ESE) 3,450 11.7 -31.1°
